User: anonymous   Login
Location: Cisewo
(53.3833°N, 14.9000°E)
Time: 12:44:00
(UTC+00:00)
Language:

RS-44 - Orbit

View from above orbital plane
View from above orbital plane
View from above satellite
View from above satellite

Ground track
Ground track

The orbit data is extracted from the following two-line orbital elements,

1 44909U 19096E   21262.91462870  .00000011  00000-0  35083-5 0  9997
2 44909  82.5216  50.0319 0216669 232.0891 126.0448 12.79711087 80944
Epoch (UTC): 19 September 2021 21:57:03
Eccentricity: 0.0216669
inclination: 82.5216°
perigee height: 1175 km
apogee height: 1510 km
right ascension of ascending node: 50.0319°
argument of perigee: 232.0891°
revolutions per day: 12.79711087
mean anomaly at epoch: 126.0448°
orbit number at epoch: 8094

The dashed part of the orbit path shows where the satellite is in the earth's shadow,  

DLR